Regional Weather Roundup
Issued by NWS

Home | Current Version | Previous Version | Text Only | Print | Product List | Glossary On
Versions: 1 2 3 4 5 6 7 8 9 10 11 12 13 14 15 16 17 18 19 20 21 22 23 24 25 26 27 28 29 30 31 32 33 34 35 36 37 38 39 40 41 42 43 44 45 46 47 48 49 50
000
ASUS44 KBMX 300510
RWRAL

ALABAMA REGIONAL WEATHER ROUNDUP
NATIONAL WEATHER SERVICE BIRMINGHAM AL
1200 AM CDT SAT MAY 30 2015

NOTE: "FAIR" INDICATES FEW OR NO CLOUDS BELOW 12,000 FEET
WITH NO SIGNIFICANT WEATHER AND/OR OBSTRUCTIONS TO VISIBILITY.

THE REMARK "TC" DENOTES TEMPERATURE IN DEGREES CELSIUS.

ALZ001>011-014-016>018-020-300600-
NORTH ALABAMA

CITY           SKY/WX    TMP DP  RH WIND       PRES   REMARKS
MUSCLE SHOALS  CLEAR     70  66  87 SE5       30.10R
HUNTSVILLE     PTCLDY    70  65  84 E7        30.10F
DECATUR        CLEAR     68  66  93 E3G28     30.11S
HALEYVILLE     FAIR      69  68  97 CALM      30.13S
GADSDEN        CLEAR    N/A N/A N/A CALM      30.11F
$$

ALZ012-013-022-023-030>036-040>044-300600-
WEST CENTRAL ALABAMA

CITY           SKY/WX    TMP DP  RH WIND       PRES   REMARKS
TUSCALOOSA     CLOUDY    76  67  73 SE6       30.09R
$$

ALZ015-024>027-033>036-040>044-300600-
CENTRAL ALABAMA

CITY           SKY/WX    TMP DP  RH WIND       PRES   REMARKS
BIRMINGHAM     CLEAR     72  69  90 E6        30.12F
MONTGOMERY     CLEAR     72  64  76 CALM      30.10F
SHELBY CO ARPT CLEAR     70  69  97 CALM      30.11S
MAXWELL AFB    CLEAR     69  67  94 CALM      30.09S
GREENVILLE     FAIR      68  63  84 CALM      30.11S
$$

ALZ019-021-028-029-037-038-045>048-300600-
EAST CENTRAL ALABAMA

CITY           SKY/WX    TMP DP  RH WIND       PRES   REMARKS
ANNISTON       CLEAR     69  67  93 E3        30.13F
ALEXANDER CITY CLEAR     67  63  88 CALM      30.14R
AUBURN         CLEAR     70  57  64 E6        30.14F
$$

ALZ051>064-300600-
SOUTHWEST ALABAMA

CITY           SKY/WX    TMP DP  RH WIND       PRES   REMARKS
MOBILE         CLEAR     73  71  93 SE5       30.09S
BROOKLEY FIELD PTCLDY    77  71  82 SE9       30.10S
EVERGREEN      CLEAR     69  68  96 CALM      30.11S
$$

ALZ049-050-065>069-300600-
SOUTHEAST ALABAMA

CITY           SKY/WX    TMP DP  RH WIND       PRES   REMARKS
DOTHAN         CLEAR     73  67  81 W5        30.14S
OZARK          CLEAR     71  67  88 CALM      30.10F
TROY           CLEAR     67  65  93 CALM      30.12S
EUFAULA        FAIR      66  64  93 CALM      30.11S
$$



USA.gov is the U.S. government's official web portal to all federal, state and local government web resources and services.